TimeEST,TemperatureF,Dew PointF,Humidity,Sea Level PressureIn,VisibilityMPH,Wind Direction,Wind SpeedMPH,Gust SpeedMPH,PrecipitationIn,Events,Conditions,WindDirDegrees,DateUTC
12:53 AM,57.9,46.9,67,29.96,10.0,NW,5.8,-,N/A,,Clear,310,2012-11-05 05:53:00
1:53 AM,53.1,46.0,77,29.96,10.0,WNW,3.5,-,N/A,,Clear,290,2012-11-05 06:53:00
2:53 AM,48.9,45.0,86,29.96,10.0,Calm,Calm,-,N/A,,Clear,0,2012-11-05 07:53:00
3:53 AM,46.9,44.1,90,29.97,10.0,Variable,3.5,-,N/A,,Scattered Clouds,0,2012-11-05 08:53:00
4:00 AM,48.2,46.4,93,29.98,10.0,Calm,Calm,-,N/A,,Mostly Cloudy,0,2012-11-05 09:00:00
4:53 AM,54.0,48.9,83,30.00,10.0,NNE,5.8,-,N/A,,Overcast,20,2012-11-05 09:53:00
5:22 AM,53.6,48.2,82,30.01,10.0,NNE,8.1,-,N/A,,Overcast,30,2012-11-05 10:22:00
5:53 AM,52.0,45.0,77,30.02,10.0,NE,5.8,-,N/A,,Partly Cloudy,50,2012-11-05 10:53:00
6:53 AM,53.6,42.8,67,30.04,10.0,NE,10.4,17.3,N/A,,Overcast,40,2012-11-05 11:53:00
7:53 AM,52.0,43.0,71,30.06,10.0,NE,3.5,-,N/A,,Clear,50,2012-11-05 12:53:00
8:53 AM,55.0,39.9,57,30.07,10.0,ENE,8.1,-,N/A,,Scattered Clouds,60,2012-11-05 13:53:00
9:53 AM,57.9,39.0,49,30.08,10.0,NE,9.2,-,N/A,,Mostly Cloudy,40,2012-11-05 14:53:00
10:53 AM,60.1,39.0,46,30.07,10.0,NE,10.4,-,N/A,,Clear,50,2012-11-05 15:53:00
11:53 AM,62.1,39.0,43,30.06,10.0,Variable,5.8,-,N/A,,Clear,0,2012-11-05 16:53:00
12:53 PM,62.1,39.0,43,30.04,10.0,Calm,Calm,-,N/A,,Clear,0,2012-11-05 17:53:00
1:53 PM,64.9,39.0,39,30.01,10.0,NNE,5.8,-,N/A,,Clear,30,2012-11-05 18:53:00
2:53 PM,66.0,39.9,38,29.99,10.0,NE,4.6,-,N/A,,Clear,40,2012-11-05 19:53:00
3:53 PM,64.9,39.9,40,29.99,10.0,NW,3.5,-,N/A,,Clear,310,2012-11-05 20:53:00
4:53 PM,63.0,39.0,41,29.99,10.0,Calm,Calm,-,N/A,,Clear,0,2012-11-05 21:53:00
5:53 PM,54.0,44.1,69,30.00,10.0,Calm,Calm,-,N/A,,Clear,0,2012-11-05 22:53:00
6:53 PM,48.9,44.1,83,30.01,10.0,Calm,Calm,-,N/A,,Clear,0,2012-11-05 23:53:00
7:53 PM,48.9,43.0,80,30.02,10.0,Calm,Calm,-,N/A,,Clear,0,2012-11-06 00:53:00
8:53 PM,48.0,44.1,86,30.03,10.0,Calm,Calm,-,N/A,,Clear,0,2012-11-06 01:53:00
9:53 PM,48.0,44.1,86,30.04,10.0,Calm,Calm,-,N/A,,Clear,0,2012-11-06 02:53:00
10:53 PM,48.9,46.0,90,30.02,10.0,Calm,Calm,-,N/A,,Scattered Clouds,0,2012-11-06 03:53:00
11:53 PM,48.9,45.0,86,30.01,10.0,Calm,Calm,-,N/A,,Clear,0,2012-11-06 04:53:00